Regional Weather Roundup
Issued by NWS Little Rock, AR

Home | Current Version | Previous Version | Graphics & Text | Print | Product List | Glossary On
Versions: 1 2 3 4 5 6 7 8 9 10 11 12 13 14 15 16 17 18 19 20 21 22 23 24 25 26 27 28
000
ASUS44 KLZK 171805
RWRLZK

WEATHER ROUNDUP FOR ARKANSAS
NATIONAL WEATHER SERVICE LITTLE ROCK AR
100 PM CDT THU APR 17 2014

NOTE: "FAIR" INDICATES FEW OR NO CLOUDS BELOW 12,000 FEET WITH NO
SIGNIFICANT WEATHER AND/OR OBSTRUCTIONS TO VISIBILITY.

ARZ001-003-010-029-171900-
NORTHWEST ARKANSAS

CITY           SKY/WX    TMP DP  RH WIND       PRES   REMARKS
FAYETTEVILLE   MOSUNNY   63  38  39 NW8       30.21F
6HR MIN TEMP:  34; 6HR MAX TEMP:  64;

FORT SMITH     SUNNY     66  37  34 MISG      30.20F
6HR MIN TEMP:  43; 6HR MAX TEMP:  66;

HARRISON       MOSUNNY   64  30  27 E7        30.22F
6HR MIN TEMP:  40; 6HR MAX TEMP:  64;

BENTONVILLE    MOSUNNY   63  36  36 CALM      30.24S
6HR MIN TEMP:  39; 6HR MAX TEMP:  63;

ROGERS         MOSUNNY   62  36  37 VRB3      30.23F
6HR MIN TEMP:  41; 6HR MAX TEMP:  63;

SILOAM SPGS    PTSUNNY   63  37  39 W7        30.24F
6HR MIN TEMP:  41; 6HR MAX TEMP:  63;

HIGHFILL       MOSUNNY   62  36  37 CALM      30.22F
6HR MIN TEMP:  38; 6HR MAX TEMP:  63;

SPRINGDALE     MOSUNNY   63  36  36 SE6       30.24F
$$

ARZ004-005-016-171900-
NORTH CENTRAL ARKANSAS

CITY           SKY/WX    TMP DP  RH WIND       PRES   REMARKS
BATESVILLE     SUNNY     66  37  34 NE3       30.22F
6HR MIN TEMP:  37; 6HR MAX TEMP:  66;

FLIPPIN        MOSUNNY   64  36  34 N6        30.22F
6HR MIN TEMP:  34; 6HR MAX TEMP:  64;

MTN HOME       MOSUNNY   64  30  27 CALM      30.22F
6HR MIN TEMP:  43; 6HR MAX TEMP:  64;

$$

ARZ040-041-171900-
WEST CENTRAL ARKANSAS

CITY           SKY/WX    TMP DP  RH WIND       PRES   REMARKS
MENA           SUNNY     66  41  39 N6        30.19F
MOUNT IDA      MOSUNNY   65  41  41 MISG      30.17F
6HR MIN TEMP:  34; 6HR MAX TEMP:  66;

$$

ARZ009-017-025-026-028-171900-
NORTHEAST ARKANSAS

CITY           SKY/WX    TMP DP  RH WIND       PRES   REMARKS
CORNING          N/A     63  37  39 SW6       30.26F
JONESBORO      SUNNY     64  38  38 S5        30.26F
6HR MIN TEMP:  37; 6HR MAX TEMP:  66;

NEWPORT        SUNNY     64  38  38 S5        30.26F
6HR MIN TEMP:  40; 6HR MAX TEMP:  64;

WALNUT RIDGE   SUNNY     63  41  45 SE8       30.26F
6HR MIN TEMP:  39; 6HR MAX TEMP:  63;

BLYTHEVILLE    SUNNY     65  41  41 SW6       30.27F
6HR MIN TEMP:  45; 6HR MAX TEMP:  65;

NW BLYTHEVILLE SUNNY     46  18  31 S6        30.68R
$$

ARZ022-023-033-042-044-171900-
CENTRAL ARKANSAS

CITY           SKY/WX    TMP DP  RH WIND       PRES   REMARKS
LITTLE ROCK    PTSUNNY   67  36  31 SE8       30.22F
6HR MIN TEMP:  41; 6HR MAX TEMP:  67;

N LITTLE ROCK  PTSUNNY   65  39  38 SW7       30.22F
6HR MIN TEMP:  45; 6HR MAX TEMP:  66;

JACKSONVILLE   MOSUNNY   67  38  34 SE7       30.22F
6HR MIN TEMP:  36; 6HR MAX TEMP:  67;

SEARCY         SUNNY     66  40  38 CALM      30.24F
6HR MIN TEMP:  36; 6HR MAX TEMP:  67;

HOT SPRINGS    MOSUNNY   66  36  32 E10       30.21F
6HR MIN TEMP:  38; 6HR MAX TEMP:  67;

RUSSELLVILLE   SUNNY     64  40  41 CALM      30.21F
6HR MIN TEMP:  36; 6HR MAX TEMP:  65;

CLINTON        FAIR      64  37  36 SE3       30.22F
$$

ARZ036-171900-
EAST ARKANSAS

CITY           SKY/WX    TMP DP  RH WIND       PRES   REMARKS
WEST MEMPHIS   MOSUNNY   66  45  46 S10       30.25F
6HR MIN TEMP:  41; 6HR MAX TEMP:  66;

$$

ARZ050-053-066-070-073-171900-
SOUTHWEST ARKANSAS

CITY           SKY/WX    TMP DP  RH WIND       PRES   REMARKS
ARKADELPHIA    FAIR      68  41  37 S8        30.22F
6HR MIN TEMP:  40; 6HR MAX TEMP:  68;

CAMDEN         CLOUDY    68  37  32 MISG      30.22S
TEXARKANA      CLOUDY    63  41  44 SE8       30.21F
6HR MIN TEMP:  42; 6HR MAX TEMP:  64;

EL DORADO      CLOUDY    65  42  43 SE10      30.22F
6HR MIN TEMP:  38; 6HR MAX TEMP:  65;

DE QUEEN       CLOUDY    65  46  50 SE8       30.18F
6HR MIN TEMP:  37; 6HR MAX TEMP:  65;

$$

ARZ056-057-069-171900-
SOUTHEAST ARKANSAS

CITY           SKY/WX    TMP DP  RH WIND       PRES   REMARKS
PINE BLUFF     PTSUNNY   66  40  38 SE7       30.23F
6HR MIN TEMP:  39; 6HR MAX TEMP:  66;

STUTTGART      PTSUNNY   66  39  37 SE8       30.24F
6HR MIN TEMP:  43; 6HR MAX TEMP:  66;

MONTICELLO     PTSUNNY   68  42  38 SE13G21   30.23F
6HR MIN TEMP:  40; 6HR MAX TEMP:  68; 6HR PCP: TRACE;


$$





USA.gov is the U.S. government's official web portal to all federal, state and local government web resources and services.